Location: ?ern� Novina
(50.6762°N, 14.8696°E)
Time: 10:55:17
(UTC+00:00)

Cosmos 2322 Rocket - Pass Details

Date: 03 March 2021
Orbit: 832 x 852 km, 71.0° (Epoch: 16 April)

Event Time Altitude Azimuth Distance (km) Brightness Sun altitude
Rises 17:24:38 0° 189° (S) 3,363 5.5 -7.0°
Reaches altitude 10° 17:27:07 10° 184° (S) 2,434 4.7 -7.4°
Maximum altitude 17:32:27 49° 111° (ESE) 1,070 2.4 -8.2°
Drops below altitude 10° 17:37:50 10° 38° (NE) 2,457 4.3 -9.1°
Sets 17:40:21 0° 33° (NNE) 3,398 5.0 -9.5°
